Погода в Покровском

Россия / Рязанская область     53°53′33″N   40°25′43″E
темп.,
°C
ветер,
м/с
пор.,
м/с
влажн.,
%
обл.,
%
осадки,
мм/ч
давл.,
гПа
погр.,
м
20 апреля, вт
вт2000:00+5всв61278100 0.0 1021587
03:00+5в71284100 0.0 1020554
06:00+5в61092100 0.1 1020769
09:00+2в61297100 1.9 1020590
12:00+3в71497100 1.6 1019685
15:00+3в71296100 2.3 1018757
18:00+2в71496100 0.6 1015656
21:00+2в71595100 1.8 1012714
21 апреля, ср
ср2100:00+4в81696100 4.1 1006978
03:00+7ююв91693100 9.6 1001753
06:00+8ююв81693100 2.5 1001862
09:00+8ююз51290100 3.4 1004815
12:00+3з4694100 0.6 1006305
15:00+5зюз6985100 0.7 1009737
18:00+5юз4886100 0.0 1012869
21:00+5ю3691100 0.0 1014222
22 апреля, чт
чт2200:00+5ю2593100 0.1 1015136
03:00+4ю379596 0.2 1015164
06:00+5ююз4893100 0.1 1016402
09:00+7юз478235 0.2 1018676
12:00+9юз5770100 0.1 10191249
15:00+11ююз576063 0.1 10191407
18:00+11ю366811 0.0 1019269
21:00+9ююв4107698 0.0 1020226
23 апреля, пт
пт2300:00+8ю4107680 0.0 1020245
03:00+6ю49905 0.0 1020152
06:00+7ю4108997 0.3 1020226
09:00+12ю596990 0.3 1020455
12:00+16ююз675216 0.0 10201645
15:00+16ю575265 0.0 10191283
18:00+15ююв47575 0.0 1018264
21:00+10ююв49708 0.0 1017157
24 апреля, сб
сб2400:00+9ююв412785 0.0 1016230
03:00+8ююв410875 0.1 1014194
06:00+8ююв5118913 0.3 1013275
09:00+12ююв69705 0.8 1011666
12:00+15ю81155100 1.3 10091817
15:00+12ююз71068100 2.8 10071322
18:00+4з61396100 4.4 1010706
21:00+5юз4989100 4.6 1010455